#timestamp,LO_Frequency,Hit 
1502010015.9,286046978.1,N
1502010035.7,286046978.6,N
1502010055.6,286046977.6,N
1502010075.4,286046977.5,N
1502010095.2,286046977.9,N
1502010115.0,286046980.0,N
1502010115.9,286046980.0,N
1502010135.8,286046978.1,N
1502010155.6,286046978.0,N
1502010175.4,286046978.1,N
1502010195.3,286046978.3,N
1502010215.1,286046976.6,N
1502010235.8,286046978.1,N
1502010255.7,286046976.4,N
1502010275.5,286046978.1,N
1502010295.3,286046978.3,N
1502010315.2,286046978.2,N
1502010335.9,286046980.3,N
1502010355.7,286046980.0,N
1502010375.6,286046978.3,N
1502010395.4,286046978.2,N
1502010415.2,286046978.7,N
1502010435.0,286046978.5,N
1502010436.0,286046978.5,N
1502010455.8,286046977.5,N
1502010475.6,286046978.5,N
1502010495.4,286046980.3,N
1502010515.3,286046980.1,N
1502010535.1,286046980.0,N
1502010555.8,286046979.2,N
1502010575.7,286046979.7,N
1502010595.5,286046979.3,N
1502010615.3,286046979.1,N
1502010635.2,286046980.4,N
1502010655.9,286046977.7,N
1502010675.7,286046979.9,N
1502010695.6,286046978.6,N
1502010715.4,286046978.6,N
1502010735.2,286046978.7,N
1502010755.0,286046977.6,N
1502010755.9,286046977.6,N
1502010775.8,286046978.3,N
1502010795.6,286046978.5,N
1502010815.4,286046976.6,N
1502010835.3,286046978.4,N
1502010855.1,286046975.8,N
1502010875.8,286046976.4,N
1502010895.7,286046976.5,N
1502010915.5,286046977.2,N
1502010935.3,286046977.2,N
1502010955.2,286046975.9,N
1502010975.9,286046976.1,N
1502010995.7,286046976.3,N
1502011015.6,286046978.1,N
1502011035.4,286046976.0,N
1502011055.2,286046975.7,N
1502011075.0,286046978.5,N
1502011076.0,286046978.5,N
1502011095.8,286046976.8,N
1502011115.6,286046978.8,N
1502011135.4,286046978.3,N
1502011155.3,286046978.4,N
1502011175.1,286046978.0,N
1502011195.8,286046977.8,N
1502011215.7,286046977.9,N
1502011235.5,286046978.5,N
1502011255.3,286046978.7,N
1502011275.2,286046976.4,N
1502011295.9,286046976.0,N
1502011315.7,286046976.9,N
1502011335.6,286046976.7,N
1502011355.4,286046974.6,N
1502011375.2,286046976.3,N
1502011395.0,286046976.1,N
1502011396.0,286046976.1,N
1502011415.8,286046974.4,N
1502011435.6,286046974.5,N
1502011455.4,286046975.9,N
1502011475.3,286046974.7,N
1502011495.1,286046977.0,N
1502011515.8,286046976.3,N
1502011535.7,286046974.5,N
1502011555.5,286046976.8,N
1502011575.3,286046976.7,N
1502011595.2,286046975.3,N
1502011615.9,286046974.8,N
1502011635.7,286046975.3,N
1502011655.6,286046975.3,N
1502011675.4,286046973.2,N
1502011695.2,286046974.4,N
1502011715.0,286046975.3,N
1502011716.0,286046975.3,N
1502011735.8,286046973.2,N
1502011755.6,286046973.2,N
1502011775.4,286046973.8,N
1502011795.3,286046973.8,N
1502011815.1,286046974.0,N
1502011835.8,286046973.2,N
1502011855.7,286046973.6,N
1502011875.5,286046973.4,N
1502011895.3,286046972.9,N
1502011915.2,286046974.8,N
1502011935.9,286046975.3,N
1502011955.7,286046972.8,N
1502011975.6,286046972.7,N
1502011995.4,286046973.3,N
1502012015.2,286046974.6,N
1502012035.1,286046972.5,N
1502012036.0,286046972.5,N
1502012055.8,286046974.2,N
1502012075.6,286046975.3,N
1502012095.4,286046972.6,N
1502012115.3,286046971.7,N
1502012135.1,286046973.9,N
1502012155.8,286046973.1,N
1502012175.7,286046974.8,N
1502012195.5,286046975.3,N
1502012215.3,286046974.8,N
1502012235.2,286046975.6,N
1502012255.9,286046974.8,N
1502012275.7,286046972.7,N
1502012295.6,286046972.6,N
1502012315.4,286046973.0,N
1502012335.2,286046974.8,N
1502012355.0,286046973.0,N
1502012356.0,286046973.0,N
1502012375.8,286046975.4,N
1502012395.6,286046975.5,N
1502012415.4,286046972.6,N
1502012435.3,286046973.0,N
1502012455.1,286046972.6,N
1502012475.8,286046975.4,N
1502012495.7,286046973.1,N
1502012515.5,286046972.6,N
1502012535.3,286046973.8,N
1502012555.2,286046971.3,N
1502012575.9,286046971.8,N
1502012595.7,286046974.0,N
1502012615.5,286046971.1,N
1502012635.4,286046974.0,N
1502012655.2,286046972.1,N
1502012675.0,286046971.0,N
1502012675.9,286046971.0,N
1502012695.8,286046971.2,N
1502012715.6,286046973.4,N
1502012735.4,286046973.7,N
1502012755.3,286046973.0,N
1502012775.1,286046973.1,N
1502012795.8,286046972.8,N
1502012815.7,286046975.5,N
1502012835.5,286046972.8,N
1502012855.3,286046975.6,N
1502012875.2,286046973.3,N
1502012895.9,286046972.8,N
1502012915.7,286046970.9,N
1502012935.6,286046971.1,N
1502012955.4,286046973.4,N
1502012975.2,286046974.0,N
1502012995.0,286046973.3,N
1502012995.9,286046973.3,N
1502013015.8,286046973.8,N
1502013035.6,286046971.2,N
1502013055.4,286046973.8,N
1502013075.3,286046973.8,N
1502013095.1,286046975.5,N
1502013115.8,286046973.4,N
1502013135.7,286046975.2,N
1502013155.5,286046972.6,N
1502013175.3,286046972.8,N
1502013195.2,286046975.0,N
1502013215.9,286046971.0,N
1502013235.7,286046973.7,N
1502013255.6,286046973.9,N
1502013275.4,286046973.5,N
1502013295.2,286046972.9,N
1502013315.0,286046973.5,N
1502013315.9,286046973.5,N
1502013335.8,286046971.5,N
1502013355.6,286046974.0,N
1502013375.4,286046971.3,N
1502013395.3,286046974.0,N
1502013415.1,286046974.0,N
1502013435.8,286046971.7,N
1502013455.7,286046971.7,N
1502013475.5,286046971.9,N
1502013495.3,286046971.5,N
1502013515.2,286046969.5,N
1502013535.9,286046970.3,N
1502013555.7,286046971.0,N
1502013575.5,286046971.2,N
1502013595.4,286046972.1,N
